TimeEDT,TemperatureF,Dew PointF,Humidity,Sea Level PressureIn,VisibilityMPH,Wind Direction,Wind SpeedMPH,Gust SpeedMPH,PrecipitationIn,Events,Conditions,WindDirDegrees,DateUTC
12:53 AM,45.0,39.0,80,30.05,10.0,Calm,Calm,-,N/A,,Clear,0,2013-05-12 04:53:00
1:53 AM,41.0,39.9,96,30.06,10.0,Calm,Calm,-,N/A,,Clear,0,2013-05-12 05:53:00
2:53 AM,41.0,41.0,100,30.05,10.0,Calm,Calm,-,N/A,,Scattered Clouds,0,2013-05-12 06:53:00
3:38 AM,39.2,39.2,100,30.04,2.0,Calm,Calm,-,N/A,,Clear,0,2013-05-12 07:38:00
3:53 AM,39.9,39.0,97,30.05,2.5,Calm,Calm,-,N/A,,Clear,0,2013-05-12 07:53:00
4:06 AM,39.2,39.2,100,30.04,0.8,Calm,Calm,-,N/A,,Clear,0,2013-05-12 08:06:00
4:13 AM,39.2,37.4,93,30.04,2.0,Calm,Calm,-,N/A,,Clear,0,2013-05-12 08:13:00
4:22 AM,39.2,37.4,93,30.04,8.0,Calm,Calm,-,N/A,,Clear,0,2013-05-12 08:22:00
4:48 AM,37.4,37.4,100,30.04,1.8,Calm,Calm,-,N/A,,Clear,0,2013-05-12 08:48:00
4:53 AM,37.9,37.9,100,30.05,1.0,Calm,Calm,-,N/A,,Clear,0,2013-05-12 08:53:00
5:08 AM,37.4,37.4,100,30.04,0.5,Calm,Calm,-,N/A,Fog,Fog,0,2013-05-12 09:08:00
5:15 AM,35.6,35.6,100,30.04,0.5,Calm,Calm,-,N/A,Fog,Fog,0,2013-05-12 09:15:00
5:23 AM,37.4,37.4,100,30.04,0.2,Calm,Calm,-,N/A,Fog,Fog,0,2013-05-12 09:23:00
5:43 AM,37.4,37.4,100,30.05,0.8,Calm,Calm,-,N/A,,Mist,0,2013-05-12 09:43:00
5:45 AM,37.4,37.4,100,30.05,1.2,Calm,Calm,-,N/A,,Partly Cloudy,0,2013-05-12 09:45:00
5:48 AM,37.4,37.4,100,30.05,4.0,Calm,Calm,-,N/A,,Partly Cloudy,0,2013-05-12 09:48:00
5:53 AM,37.0,37.0,100,30.05,8.0,Calm,Calm,-,N/A,,Partly Cloudy,0,2013-05-12 09:53:00
6:05 AM,35.6,35.6,100,30.05,1.8,Calm,Calm,-,N/A,,Scattered Clouds,0,2013-05-12 10:05:00
6:12 AM,35.6,35.6,100,30.05,1.8,Calm,Calm,-,N/A,,Mostly Cloudy,0,2013-05-12 10:12:00
6:23 AM,37.4,37.4,100,30.06,0.5,Calm,Calm,-,N/A,Fog,Fog,0,2013-05-12 10:23:00
6:30 AM,37.4,37.4,100,30.06,2.0,Calm,Calm,-,N/A,,Mostly Cloudy,0,2013-05-12 10:30:00
6:32 AM,37.4,37.4,100,30.06,4.0,Calm,Calm,-,N/A,,Scattered Clouds,0,2013-05-12 10:32:00
6:42 AM,35.6,35.6,100,30.06,1.0,Calm,Calm,-,N/A,,Mist,0,2013-05-12 10:42:00
6:49 AM,35.6,35.6,100,30.06,0.5,Calm,Calm,-,N/A,Fog,Fog,0,2013-05-12 10:49:00
6:53 AM,36.0,36.0,100,30.06,10.0,Calm,Calm,-,N/A,Fog,Patches of Fog,0,2013-05-12 10:53:00
7:53 AM,44.1,41.0,89,30.08,10.0,West,4.6,-,N/A,,Clear,260,2013-05-12 11:53:00
8:53 AM,48.0,36.0,63,30.09,10.0,WNW,4.6,-,N/A,,Clear,290,2013-05-12 12:53:00
9:53 AM,51.1,35.1,54,30.09,10.0,West,9.2,-,N/A,,Clear,270,2013-05-12 13:53:00
10:53 AM,52.0,34.0,50,30.09,10.0,West,8.1,17.3,N/A,,Scattered Clouds,280,2013-05-12 14:53:00
11:53 AM,52.0,32.0,47,30.10,10.0,WNW,12.7,18.4,N/A,,Mostly Cloudy,300,2013-05-12 15:53:00
12:53 PM,54.0,32.0,43,30.11,10.0,WNW,9.2,17.3,N/A,,Mostly Cloudy,300,2013-05-12 16:53:00
1:53 PM,54.0,30.9,41,30.12,10.0,WNW,10.4,20.7,N/A,,Mostly Cloudy,300,2013-05-12 17:53:00
2:53 PM,54.0,30.0,40,30.11,10.0,West,10.4,20.7,N/A,,Mostly Cloudy,280,2013-05-12 18:53:00
3:53 PM,55.9,32.0,40,30.11,10.0,WNW,13.8,19.6,N/A,,Scattered Clouds,290,2013-05-12 19:53:00
4:53 PM,55.9,30.0,37,30.10,10.0,West,17.3,24.2,N/A,,Mostly Cloudy,270,2013-05-12 20:53:00
5:53 PM,55.9,30.0,37,30.11,10.0,West,15.0,20.7,N/A,,Mostly Cloudy,270,2013-05-12 21:53:00
6:53 PM,54.0,30.0,40,30.10,10.0,West,13.8,18.4,N/A,,Mostly Cloudy,270,2013-05-12 22:53:00
7:53 PM,53.1,28.0,38,30.10,10.0,WNW,5.8,-,N/A,,Mostly Cloudy,290,2013-05-12 23:53:00
8:53 PM,51.1,28.9,43,30.12,10.0,NW,3.5,-,N/A,,Partly Cloudy,320,2013-05-13 00:53:00
9:53 PM,51.1,28.9,43,30.14,10.0,Calm,Calm,-,N/A,,Mostly Cloudy,0,2013-05-13 01:53:00
10:53 PM,44.1,37.0,76,30.15,10.0,Calm,Calm,-,N/A,,Scattered Clouds,0,2013-05-13 02:53:00
11:53 PM,42.1,37.0,82,30.15,10.0,Calm,Calm,-,N/A,,Overcast,0,2013-05-13 03:53:00